QPF
0.01 0.01 0.02 0.02 0.02 0.01 0.01 0.01 0.01 0.01 0.01 0.01 0.02 0.03 0.03 0.03 0.03 0.04 0.04 0.02 0.01 0.01 0.01 0.00 0.00 0.00 0.00 0.00 0.00 0.00 0.00 0.01 0.01 0.00 0.00 0.01 0.01 0.01 0.01 0.02 0.02 0.02 0.02
0.01 0.01 0.02 0.02 0.02 0.02 0.01 0.01 0.01 0.01 0.01 0.01 0.01 0.02 0.04 0.04 0.03 0.03 0.04 0.03 0.02 0.02 0.02 0.01 0.01 0.01 0.01 0.01 0.00 0.00 0.00 0.00 0.01 0.01 0.01 0.01 0.02 0.02 0.01 0.02 0.02 0.02 0.02
0.01 0.01 0.02 0.02 0.02 0.02 0.01 0.01 0.01 0.01 0.01 0.01 0.01 0.01 0.02 0.04 0.05 0.03 0.03 0.03 0.02 0.02 0.02 0.02 0.01 0.01 0.01 0.01 0.01 0.01 0.01 0.00 0.01 0.01 0.01 0.01 0.01 0.02 0.01 0.02 0.02 0.02 0.02
0.01 0.01 0.01 0.01 0.01 0.01 0.01 0.01 0.01 0.01 0.01 0.01 0.01 0.01 0.01 0.02 0.03 0.04 0.03 0.02 0.02 0.02 0.02 0.01 0.01 0.01 0.01 0.01 0.01 0.01 0.01 0.01 0.01 0.01 0.01 0.01 0.01 0.01 0.01 0.01 0.02 0.02 0.02
0.01 0.01 0.01 0.01 0.01 0.01 0.01 0.01 0.01 0.01 0.01 0.01 0.01 0.01 0.01 0.02 0.02 0.02 0.04 0.03 0.02 0.02 0.01 0.01 0.00 0.01 0.01 0.01 0.01 0.01 0.01 0.01 0.01 0.01 0.01 0.01 0.01 0.01 0.01 0.01 0.01 0.01 0.02
0.01 0.01 0.02 0.02 0.01 0.02 0.02 0.02 0.02 0.02 0.01 0.01 0.01 0.01 0.01 0.01 0.02 0.02 0.02 0.04 0.03 0.02 0.01 0.01 0.00 0.00 0.00 0.00 0.01 0.01 0.01 0.01 0.01 0.01 0.01 0.01 0.01 0.01 0.01 0.01 0.00 0.01 0.01
0.02 0.02 0.02 0.02 0.02 0.02 0.02 0.02 0.02 0.02 0.02 0.01 0.01 0.01 0.01 0.01 0.02 0.02 0.02 0.03 0.03 0.02 0.02 0.01 0.00 0.00 0.00 0.00 0.00 0.00 0.00 0.00 0.00 0.00 0.01 0.00 0.00 0.01 0.01 0.01 0.01 0.01 0.00
0.03 0.02 0.02 0.02 0.02 0.02 0.02 0.01 0.02 0.02 0.02 0.02 0.01 0.01 0.01 0.01 0.01 0.01 0.02 0.02 0.03 0.03 0.02 0.01 0.00 0.00 0.00 0.00 0.00 0.00 0.00 0.00 0.00 0.00 0.00 0.00 0.01 0.01 0.01 0.01 0.01 0.01 0.00
0.03 0.02 0.01 0.01 0.02 0.02 0.01 0.01 0.01 0.01 0.02 0.02 0.02 0.02 0.01 0.01 0.01 0.01 0.01 0.01 0.03 0.03 0.02 0.02 0.01 0.00 0.01 0.01 0.01 0.00 0.00 0.00 0.00 0.00 0.00 0.00 0.01 0.01 0.01 0.01 0.01 0.01 0.01
0.02 0.02 0.01 0.01 0.01 0.01 0.01 0.00 0.00 0.01 0.01 0.02 0.02 0.02 0.02 0.01 0.01 0.01 0.01 0.01 0.02 0.02 0.02 0.02 0.01 0.01 0.00 0.01 0.01 0.01 0.00 0.00 0.00 0.00 0.00 0.00 0.00 0.01 0.01 0.01 0.01 0.01 0.01
0.02 0.02 0.01 0.01 0.01 0.01 0.01 0.00 0.00 0.00 0.01 0.01 0.02 0.02 0.02 0.02 0.01 0.01 0.01 0.00 0.01 0.01 0.01 0.01 0.01 0.01 0.01 0.01 0.01 0.01 0.01 0.00 0.00 0.00 0.00 0.00 0.00 0.00 0.00 0.00 0.00 0.01 0.01
0.02 0.02 0.02 0.02 0.01 0.01 0.01 0.01 0.00 0.00 0.00 0.00 0.01 0.01 0.01 0.02 0.02 0.01 0.01 0.01 0.01 0.01 0.02 0.01 0.01 0.01 0.01 0.01 0.01 0.01 0.01 0.01 0.01 0.01 0.01 0.01 0.01 0.00 0.00 0.00 0.01 0.01 0.01
0.02 0.02 0.02 0.02 0.02 0.02 0.01 0.00 0.00 0.00 0.00 0.00 0.00 0.01 0.01 0.01 0.02 0.01 0.01 0.01 0.01 0.01 0.01 0.02 0.01 0.01 0.01 0.01 0.01 0.01 0.01 0.01 0.01 0.01 0.01 0.01 0.00 0.00 0.01 0.01 0.01 0.02 0.02
0.02 0.03 0.02 0.02 0.02 0.02 0.02 0.01 0.01 0.00 0.00 0.00 0.00 0.00 0.00 0.01 0.02 0.01 0.01 0.01 0.01 0.01 0.01 0.01 0.02 0.01 0.01 0.00 0.00 0.00 0.00 0.01 0.01 0.01 0.01 0.01 0.01 0.01 0.01 0.01 0.01 0.02 0.02
0.02 0.02 0.03 0.02 0.02 0.02 0.01 0.01 0.01 0.00 0.00 0.00 0.00 0.00 0.00 0.00 0.01 0.01 0.02 0.01 0.02 0.02 0.01 0.01 0.01 0.01 0.01 0.01 0.01 0.01 0.00 0.01 0.01 0.01 0.01 0.01 0.01 0.01 0.01 0.01 0.01 0.02 0.02
0.01 0.02 0.02 0.02 0.02 0.02 0.01 0.01 0.01 0.00 0.00 0.00 0.00 0.00 0.00 0.00 0.01 0.01 0.01 0.01 0.01 0.02 0.01 0.01 0.01 0.01 0.01 0.01 0.01 0.01 0.01 0.01 0.01 0.01 0.01 0.01 0.01 0.01 0.01 0.01 0.01 0.02 0.02
0.01 0.01 0.02 0.02 0.02 0.02 0.01 0.01 0.01 0.00 0.00 0.00 0.00 0.01 0.01 0.01 0.01 0.01 0.01 0.01 0.01 0.01 0.01 0.01 0.01 0.01 0.01 0.01 0.01 0.01 0.01 0.01 0.01 0.01 0.01 0.01 0.01 0.01 0.01 0.01 0.01 0.01 0.01
0.01 0.01 0.01 0.01 0.01 0.01 0.01 0.01 0.01 0.01 0.01 0.01 0.01 0.01 0.01 0.01 0.01 0.01 0.01 0.01 0.01 0.01 0.00 0.01 0.01 0.01 0.01 0.01 0.01 0.01 0.01 0.01 0.01 0.01 0.01 0.01 0.01 0.01 0.01 0.01 0.01 0.01 0.01
0.02 0.02 0.01 0.01 0.01 0.01 0.01 0.01 0.01 0.01 0.01 0.01 0.01 0.01 0.01 0.01 0.01 0.01 0.01 0.01 0.01 0.01 0.01 0.01 0.01 0.01 0.01 0.01 0.01 0.01 0.01 0.01 0.01 0.01 0.01 0.01 0.01 0.01 0.01 0.01 0.01 0.01 0.01
0.02 0.02 0.02 0.02 0.01 0.01 0.01 0.01 0.01 0.01 0.01 0.01 0.01 0.01 0.01 0.01 0.01 0.01 0.01 0.01 0.01 0.01 0.01 0.01 0.01 0.01 0.01 0.01 0.01 0.01 0.01 0.02 0.01 0.01 0.01 0.01 0.01 0.01 0.01 0.01 0.01 0.01 0.01
0.02 0.02 0.02 0.02 0.02 0.01 0.01 0.01 0.01 0.01 0.01 0.01 0.01 0.01 0.01 0.01 0.01 0.01 0.01 0.01 0.01 0.01 0.01 0.01 0.01 0.01 0.01 0.01 0.02 0.02 0.02 0.02 0.01 0.01 0.02 0.02 0.02 0.02 0.01 0.01 0.01 0.01 0.01
0.01 0.02 0.02 0.02 0.01 0.01 0.01 0.01 0.01 0.01 0.01 0.01 0.01 0.01 0.01 0.01 0.01 0.01 0.01 0.01 0.01 0.02 0.02 0.02 0.02 0.02 0.02 0.02 0.02 0.02 0.02 0.01 0.01 0.01 0.01 0.01 0.02 0.02 0.02 0.02 0.01 0.01 0.01
0.01 0.01 0.01 0.01 0.01 0.01 0.01 0.01 0.01 0.01 0.01 0.01 0.01 0.01 0.01 0.01 0.01 0.01 0.01 0.01 0.01 0.01 0.02 0.01 0.01 0.01 0.01 0.01 0.02 0.02 0.02 0.01 0.01 0.01 0.01 0.01 0.01 0.01 0.01 0.02 0.02 0.02 0.02
0.01 0.01 0.01 0.01 0.01 0.01 0.01 0.01 0.01 0.01 0.01 0.01 0.01 0.01 0.01 0.01 0.01 0.01 0.01 0.01 0.01 0.01 0.01 0.01 0.01 0.01 0.01 0.01 0.01 0.01 0.01 0.01 0.01 0.02 0.02 0.02 0.02 0.01 0.01 0.01 0.02 0.02 0.02
0.01 0.01 0.01 0.01 0.01 0.01 0.01 0.01 0.01 0.01 0.01 0.01 0.01 0.01 0.01 0.01 0.01 0.01 0.01 0.01 0.01 0.01 0.01 0.01 0.01 0.01 0.01 0.01 0.01 0.01 0.01 0.01 0.01 0.02 0.02 0.02 0.01 0.01 0.01 0.01 0.01 0.01 0.01
0.01 0.01 0.01 0.01 0.01 0.01 0.01 0.01 0.01 0.01 0.01 0.01 0.01 0.01 0.01 0.01 0.01 0.01 0.01 0.00 0.00 0.00 0.00 0.01 0.01 0.01 0.01 0.01 0.01 0.01 0.01 0.01 0.01 0.01 0.01 0.02 0.01 0.01 0.01 0.01 0.01 0.01 0.01
MSLP
1013.79 1013.96 1014.13 1014.30 1014.50 1014.73 1015.02 1015.37 1015.79 1016.24 1016.73 1017.22 1017.68 1018.11 1018.47 1018.79 1019.05 1019.28 1019.48 1019.67 1019.85 1020.03 1020.20 1020.34 1020.45 1020.49 1020.45 1020.33 1020.11 1019.81 1019.45 1019.03 1018.60 1018.19 1017.84 1017.58 1017.43 1017.43 1017.59 1017.90 1018.35 1018.93 1019.61
1013.58 1013.70 1013.83 1013.96 1014.13 1014.33 1014.59 1014.91 1015.29 1015.72 1016.18 1016.66 1017.11 1017.54 1017.91 1018.24 1018.53 1018.78 1019.01 1019.23 1019.46 1019.69 1019.92 1020.14 1020.34 1020.48 1020.56 1020.55 1020.45 1020.27 1020.00 1019.67 1019.30 1018.91 1018.56 1018.28 1018.09 1018.03 1018.12 1018.36 1018.75 1019.28 1019.93
1013.35 1013.44 1013.53 1013.63 1013.76 1013.93 1014.15 1014.44 1014.78 1015.18 1015.61 1016.06 1016.50 1016.92 1017.30 1017.64 1017.94 1018.22 1018.47 1018.72 1018.98 1019.25 1019.53 1019.81 1020.07 1020.30 1020.48 1020.59 1020.63 1020.57 1020.43 1020.20 1019.92 1019.61 1019.30 1019.03 1018.84 1018.75 1018.79 1018.98 1019.32 1019.81 1020.41
1013.13 1013.18 1013.24 1013.31 1013.41 1013.55 1013.74 1013.98 1014.28 1014.64 1015.03 1015.45 1015.88 1016.29 1016.67 1017.02 1017.34 1017.63 1017.91 1018.18 1018.46 1018.75 1019.06 1019.38 1019.69 1019.99 1020.26 1020.47 1020.62 1020.69 1020.68 1020.59 1020.42 1020.21 1019.97 1019.75 1019.58 1019.49 1019.51 1019.68 1019.98 1020.42 1020.98
1012.90 1012.92 1012.96 1013.01 1013.09 1013.19 1013.34 1013.55 1013.81 1014.12 1014.48 1014.86 1015.26 1015.66 1016.04 1016.40 1016.74 1017.05 1017.35 1017.64 1017.93 1018.24 1018.56 1018.89 1019.24 1019.58 1019.91 1020.20 1020.45 1020.63 1020.75 1020.78 1020.73 1020.63 1020.48 1020.33 1020.21 1020.15 1020.18 1020.33 1020.61 1021.02 1021.55
1012.63 1012.65 1012.67 1012.71 1012.77 1012.85 1012.97 1013.14 1013.36 1013.63 1013.95 1014.30 1014.67 1015.05 1015.43 1015.79 1016.14 1016.47 1016.79 1017.10 1017.40 1017.71 1018.03 1018.37 1018.72 1019.09 1019.45 1019.80 1020.12 1020.39 1020.60 1020.75 1020.82 1020.82 1020.78 1020.71 1020.65 1020.63 1020.69 1020.85 1021.12 1021.51 1022.01
1012.30 1012.32 1012.35 1012.38 1012.43 1012.51 1012.61 1012.75 1012.94 1013.17 1013.45 1013.76 1014.10 1014.47 1014.83 1015.20 1015.55 1015.90 1016.23 1016.54 1016.85 1017.17 1017.48 1017.82 1018.16 1018.53 1018.91 1019.28 1019.65 1019.98 1020.27 1020.51 1020.67 1020.78 1020.83 1020.84 1020.85 1020.89 1020.99 1021.16 1021.44 1021.82 1022.30
1011.87 1011.90 1011.93 1011.98 1012.04 1012.11 1012.21 1012.34 1012.50 1012.71 1012.95 1013.23 1013.55 1013.88 1014.23 1014.59 1014.95 1015.29 1015.63 1015.95 1016.27 1016.58 1016.90 1017.22 1017.55 1017.91 1018.29 1018.67 1019.06 1019.44 1019.79 1020.09 1020.33 1020.52 1020.65 1020.74 1020.82 1020.91 1021.04 1021.24 1021.52 1021.90 1022.37
1011.30 1011.35 1011.40 1011.46 1011.54 1011.63 1011.74 1011.87 1012.02 1012.21 1012.43 1012.68 1012.97 1013.27 1013.60 1013.95 1014.29 1014.64 1014.98 1015.31 1015.63 1015.94 1016.25 1016.56 1016.89 1017.24 1017.61 1018.00 1018.41 1018.81 1019.19 1019.54 1019.85 1020.10 1020.30 1020.45 1020.59 1020.72 1020.88 1021.10 1021.39 1021.76 1022.21
1010.60 1010.65 1010.72 1010.81 1010.91 1011.02 1011.15 1011.29 1011.46 1011.64 1011.85 1012.08 1012.34 1012.63 1012.93 1013.25 1013.59 1013.92 1014.26 1014.59 1014.91 1015.23 1015.54 1015.85 1016.18 1016.53 1016.90 1017.29 1017.71 1018.13 1018.54 1018.93 1019.28 1019.59 1019.84 1020.04 1020.22 1020.39 1020.57 1020.79 1021.07 1021.43 1021.86
1009.78 1009.83 1009.91 1010.01 1010.14 1010.27 1010.43 1010.60 1010.78 1010.98 1011.19 1011.41 1011.66 1011.92 1012.20 1012.51 1012.82 1013.15 1013.47 1013.80 1014.13 1014.44 1014.76 1015.09 1015.42 1015.78 1016.16 1016.57 1016.99 1017.44 1017.88 1018.30 1018.69 1019.03 1019.32 1019.57 1019.77 1019.96 1020.15 1020.37 1020.64 1020.97 1021.37
1008.87 1008.92 1008.99 1009.10 1009.24 1009.40 1009.58 1009.78 1009.99 1010.21 1010.43 1010.67 1010.91 1011.16 1011.43 1011.71 1012.01 1012.32 1012.64 1012.96 1013.28 1013.61 1013.94 1014.27 1014.63 1015.00 1015.39 1015.82 1016.27 1016.74 1017.21 1017.66 1018.09 1018.47 1018.79 1019.07 1019.29 1019.50 1019.69 1019.90 1020.15 1020.44 1020.81
1007.93 1007.95 1008.01 1008.11 1008.25 1008.43 1008.64 1008.87 1009.11 1009.35 1009.60 1009.85 1010.09 1010.35 1010.61 1010.88 1011.17 1011.46 1011.77 1012.09 1012.41 1012.74 1013.08 1013.43 1013.79 1014.19 1014.61 1015.06 1015.54 1016.03 1016.53 1017.02 1017.47 1017.89 1018.24 1018.55 1018.79 1019.01 1019.20 1019.39 1019.62 1019.88 1020.21
1006.99 1006.97 1007.00 1007.09 1007.22 1007.41 1007.63 1007.88 1008.15 1008.43 1008.70 1008.97 1009.23 1009.50 1009.76 1010.03 1010.31 1010.60 1010.89 1011.20 1011.52 1011.85 1012.20 1012.56 1012.95 1013.35 1013.80 1014.27 1014.78 1015.30 1015.83 1016.34 1016.83 1017.28 1017.67 1017.99 1018.26 1018.49 1018.68 1018.87 1019.08 1019.32 1019.61
1006.08 1006.02 1006.02 1006.07 1006.19 1006.37 1006.60 1006.86 1007.15 1007.45 1007.75 1008.05 1008.34 1008.62 1008.89 1009.17 1009.44 1009.73 1010.02 1010.33 1010.64 1010.97 1011.32 1011.69 1012.08 1012.51 1012.97 1013.46 1013.98 1014.53 1015.08 1015.62 1016.14 1016.62 1017.03 1017.39 1017.69 1017.93 1018.14 1018.33 1018.52 1018.75 1019.01
1005.19 1005.10 1005.06 1005.09 1005.19 1005.35 1005.57 1005.83 1006.13 1006.45 1006.77 1007.09 1007.40 1007.70 1007.99 1008.28 1008.56 1008.85 1009.15 1009.45 1009.77 1010.10 1010.45 1010.82 1011.22 1011.65 1012.12 1012.62 1013.16 1013.72 1014.29 1014.85 1015.39 1015.89 1016.34 1016.73 1017.05 1017.32 1017.55 1017.75 1017.95 1018.17 1018.43
1004.29 1004.18 1004.12 1004.13 1004.21 1004.36 1004.56 1004.82 1005.12 1005.44 1005.76 1006.10 1006.42 1006.74 1007.05 1007.35 1007.66 1007.96 1008.26 1008.58 1008.90 1009.24 1009.59 1009.97 1010.37 1010.81 1011.28 1011.79 1012.34 1012.90 1013.48 1014.05 1014.61 1015.13 1015.60 1016.01 1016.36 1016.66 1016.91 1017.14 1017.36 1017.59 1017.86
1003.34 1003.24 1003.19 1003.19 1003.26 1003.40 1003.59 1003.83 1004.11 1004.42 1004.74 1005.07 1005.41 1005.74 1006.06 1006.39 1006.71 1007.03 1007.36 1007.69 1008.03 1008.39 1008.76 1009.15 1009.57 1010.01 1010.49 1011.00 1011.55 1012.11 1012.69 1013.27 1013.83 1014.36 1014.85 1015.28 1015.65 1015.98 1016.26 1016.51 1016.75 1017.00 1017.29
1002.31 1002.24 1002.22 1002.25 1002.33 1002.46 1002.64 1002.87 1003.13 1003.41 1003.71 1004.03 1004.36 1004.69 1005.03 1005.38 1005.72 1006.08 1006.44 1006.80 1007.18 1007.56 1007.96 1008.38 1008.82 1009.28 1009.77 1010.29 1010.83 1011.40 1011.97 1012.55 1013.10 1013.63 1014.12 1014.57 1014.96 1015.30 1015.60 1015.88 1016.14 1016.42 1016.73
1001.16 1001.17 1001.21 1001.29 1001.41 1001.55 1001.73 1001.94 1002.17 1002.43 1002.70 1002.99 1003.31 1003.63 1003.98 1004.34 1004.72 1005.11 1005.51 1005.92 1006.34 1006.77 1007.22 1007.67 1008.14 1008.63 1009.14 1009.67 1010.22 1010.78 1011.35 1011.92 1012.47 1012.99 1013.48 1013.92 1014.31 1014.67 1014.98 1015.27 1015.56 1015.86 1016.18
999.93 1000.04 1000.18 1000.33 1000.50 1000.68 1000.87 1001.06 1001.27 1001.49 1001.73 1001.99 1002.28 1002.59 1002.94 1003.32 1003.72 1004.15 1004.60 1005.07 1005.54 1006.03 1006.53 1007.03 1007.54 1008.06 1008.60 1009.15 1009.71 1010.27 1010.84 1011.40 1011.94 1012.45 1012.93 1013.36 1013.75 1014.10 1014.42 1014.72 1015.02 1015.33 1015.66
998.64 998.88 999.13 999.39 999.63 999.85 1000.05 1000.25 1000.43 1000.62 1000.82 1001.05 1001.31 1001.62 1001.96 1002.35 1002.79 1003.25 1003.75 1004.27 1004.81 1005.35 1005.90 1006.46 1007.01 1007.57 1008.14 1008.71 1009.28 1009.86 1010.42 1010.97 1011.50 1012.00 1012.47 1012.89 1013.27 1013.62 1013.93 1014.23 1014.52 1014.84 1015.18
997.37 997.74 998.12 998.48 998.80 999.07 999.30 999.50 999.67 999.83 1000.00 1000.21 1000.45 1000.74 1001.08 1001.49 1001.95 1002.45 1002.99 1003.56 1004.15 1004.74 1005.34 1005.94 1006.54 1007.13 1007.73 1008.32 1008.90 1009.48 1010.05 1010.60 1011.12 1011.62 1012.07 1012.49 1012.86 1013.19 1013.50 1013.80 1014.09 1014.39 1014.73
996.18 996.68 997.17 997.63 998.02 998.34 998.60 998.80 998.97 999.12 999.27 999.45 999.68 999.97 1000.33 1000.75 1001.23 1001.76 1002.34 1002.95 1003.57 1004.20 1004.84 1005.47 1006.09 1006.71 1007.32 1007.92 1008.52 1009.10 1009.67 1010.23 1010.75 1011.25 1011.70 1012.11 1012.48 1012.82 1013.12 1013.41 1013.70 1013.99 1014.32
995.13 995.73 996.31 996.83 997.28 997.64 997.92 998.13 998.29 998.44 998.59 998.77 999.00 999.30 999.67 1000.11 1000.62 1001.18 1001.79 1002.42 1003.07 1003.72 1004.37 1005.01 1005.64 1006.26 1006.88 1007.49 1008.08 1008.68 1009.25 1009.81 1010.35 1010.85 1011.31 1011.74 1012.12 1012.46 1012.77 1013.06 1013.34 1013.63 1013.94
994.23 994.89 995.51 996.07 996.55 996.92 997.21 997.43 997.61 997.76 997.92 998.12 998.37 998.69 999.09 999.56 1000.10 1000.69 1001.31 1001.96 1002.62 1003.27 1003.92 1004.55 1005.18 1005.79 1006.40 1007.00 1007.60 1008.19 1008.77 1009.34 1009.89 1010.41 1010.90 1011.34 1011.75 1012.11 1012.43 1012.73 1013.02 1013.30 1013.60
Thickness
5517 5517 5517 5517 5516 5515 5515 5515 5514 5513 5512 5511 5511 5510 5510 5509 5508 5507 5507 5506 5505 5504 5502 5500 5499 5497 5495 5494 5492 5492 5491 5490 5492 5493 5490 5488 5487 5485 5484 5483 5482 5481 5481
5509 5508 5508 5507 5507 5506 5506 5506 5505 5504 5503 5502 5502 5501 5501 5501 5500 5500 5499 5497 5497 5495 5493 5492 5490 5488 5487 5485 5484 5483 5482 5481 5481 5481 5480 5478 5476 5474 5474 5472 5472 5471 5471
5499 5499 5499 5499 5498 5498 5498 5497 5496 5495 5495 5494 5493 5493 5492 5492 5491 5491 5490 5489 5487 5486 5485 5483 5481 5479 5478 5476 5475 5473 5472 5470 5469 5469 5469 5467 5465 5464 5463 5462 5461 5461 5461
5490 5490 5490 5490 5489 5489 5488 5487 5487 5486 5486 5486 5485 5484 5483 5483 5482 5481 5480 5479 5478 5476 5474 5473 5472 5470 5468 5467 5465 5463 5462 5460 5459 5458 5458 5457 5455 5453 5452 5452 5452 5452 5451
5482 5482 5481 5481 5480 5479 5478 5478 5477 5477 5476 5476 5475 5474 5474 5473 5473 5473 5471 5470 5469 5467 5465 5463 5462 5459 5457 5456 5455 5453 5452 5451 5449 5449 5448 5447 5446 5444 5442 5442 5442 5442 5443
5474 5473 5472 5472 5471 5470 5469 5468 5467 5467 5466 5466 5465 5465 5465 5465 5464 5463 5462 5460 5459 5458 5456 5454 5452 5449 5447 5446 5445 5444 5442 5441 5441 5439 5439 5439 5438 5435 5433 5432 5431 5432 5434
5465 5464 5463 5462 5462 5461 5460 5459 5458 5457 5457 5457 5456 5456 5456 5455 5453 5453 5451 5451 5450 5449 5447 5445 5443 5441 5439 5438 5437 5435 5433 5431 5430 5430 5430 5430 5428 5426 5424 5423 5422 5421 5422
5457 5456 5455 5454 5453 5452 5451 5450 5449 5449 5449 5448 5447 5447 5446 5446 5444 5443 5442 5441 5440 5439 5437 5436 5434 5433 5431 5429 5428 5427 5426 5424 5422 5420 5420 5419 5417 5415 5414 5413 5412 5412 5412
5449 5448 5446 5445 5444 5443 5442 5442 5441 5440 5440 5439 5438 5437 5437 5436 5434 5433 5432 5432 5431 5429 5428 5426 5425 5424 5422 5420 5419 5419 5418 5416 5413 5411 5410 5408 5406 5405 5403 5403 5403 5402 5405
5441 5439 5438 5437 5436 5436 5435 5434 5432 5432 5431 5430 5429 5428 5428 5427 5425 5424 5423 5423 5422 5421 5419 5418 5416 5415 5413 5411 5410 5410 5409 5408 5405 5403 5401 5399 5398 5397 5395 5393 5393 5393 5394
5432 5430 5429 5428 5428 5427 5426 5425 5424 5423 5422 5421 5421 5420 5419 5418 5417 5416 5414 5414 5413 5412 5411 5410 5408 5406 5404 5403 5402 5402 5400 5398 5396 5394 5393 5392 5390 5389 5387 5385 5384 5383 5384
5423 5422 5421 5420 5419 5418 5418 5417 5416 5415 5414 5413 5412 5412 5411 5409 5408 5407 5406 5404 5403 5403 5403 5402 5400 5398 5396 5395 5394 5393 5390 5388 5387 5386 5385 5384 5382 5381 5379 5378 5377 5376 5376
5415 5415 5413 5412 5411 5410 5410 5409 5408 5407 5407 5406 5405 5405 5404 5402 5400 5398 5397 5396 5394 5394 5394 5393 5391 5390 5388 5387 5386 5384 5381 5380 5378 5377 5376 5375 5373 5372 5370 5370 5369 5369 5369
5408 5407 5406 5405 5404 5403 5402 5401 5401 5400 5400 5399 5398 5397 5396 5394 5393 5391 5390 5388 5386 5386 5385 5384 5382 5380 5379 5379 5377 5375 5373 5371 5369 5368 5367 5365 5364 5363 5363 5362 5362 5362 5363
5400 5399 5398 5397 5397 5395 5395 5394 5394 5394 5394 5392 5392 5390 5389 5388 5387 5384 5383 5382 5381 5379 5377 5375 5374 5373 5372 5370 5368 5366 5363 5362 5360 5359 5358 5357 5357 5356 5356 5355 5355 5355 5355
5393 5392 5391 5390 5389 5388 5387 5386 5384 5384 5384 5383 5382 5381 5381 5379 5378 5377 5375 5374 5372 5371 5369 5368 5367 5366 5365 5363 5360 5358 5356 5354 5353 5351 5350 5349 5349 5349 5349 5349 5348 5348 5348
5386 5385 5383 5382 5381 5380 5380 5379 5378 5377 5375 5374 5374 5373 5372 5371 5370 5369 5368 5366 5365 5363 5362 5362 5361 5359 5357 5355 5353 5351 5349 5348 5346 5344 5343 5343 5343 5343 5343 5343 5343 5343 5343
5377 5376 5375 5375 5373 5373 5372 5371 5371 5370 5370 5369 5367 5366 5365 5364 5363 5362 5360 5359 5358 5357 5356 5355 5354 5352 5350 5349 5347 5345 5343 5341 5340 5339 5338 5338 5338 5337 5338 5338 5338 5337 5337
5369 5368 5367 5367 5366 5365 5364 5363 5363 5362 5362 5361 5360 5359 5358 5357 5356 5354 5353 5353 5352 5351 5350 5348 5347 5346 5344 5343 5341 5339 5337 5336 5335 5334 5334 5333 5333 5333 5332 5332 5332 5331 5331
5361 5360 5359 5359 5357 5356 5356 5355 5355 5354 5354 5353 5353 5352 5351 5350 5349 5348 5346 5346 5345 5345 5343 5342 5341 5339 5338 5337 5335 5333 5332 5331 5330 5330 5329 5329 5328 5328 5327 5327 5327 5327 5327
5353 5352 5350 5349 5349 5348 5347 5347 5347 5346 5346 5346 5345 5344 5344 5343 5343 5341 5340 5339 5339 5338 5337 5335 5334 5333 5332 5331 5330 5328 5328 5327 5327 5326 5325 5325 5324 5323 5323 5322 5322 5322 5321
5344 5343 5342 5341 5340 5339 5339 5338 5338 5338 5338 5337 5337 5336 5335 5335 5334 5334 5333 5333 5332 5331 5330 5329 5329 5328 5327 5326 5326 5325 5324 5324 5323 5323 5322 5321 5320 5319 5318 5318 5318 5317 5317
5335 5334 5333 5332 5331 5331 5330 5330 5330 5329 5329 5329 5329 5328 5327 5327 5327 5326 5326 5326 5325 5325 5324 5323 5323 5323 5322 5322 5321 5321 5321 5320 5320 5319 5318 5317 5316 5315 5314 5314 5314 5313 5313
5326 5325 5324 5323 5323 5323 5322 5322 5322 5321 5321 5320 5320 5320 5319 5319 5318 5318 5318 5318 5318 5318 5318 5318 5318 5318 5317 5317 5317 5317 5317 5316 5315 5315 5314 5313 5312 5311 5311 5310 5310 5310 5309
5318 5317 5316 5316 5315 5315 5315 5314 5314 5314 5313 5313 5313 5312 5312 5312 5311 5311 5312 5312 5312 5312 5312 5312 5312 5312 5313 5313 5313 5314 5314 5313 5312 5311 5310 5309 5309 5308 5307 5307 5307 5306 5305
5310 5309 5309 5308 5308 5308 5308 5307 5307 5306 5306 5306 5306 5306 5306 5305 5305 5305 5305 5306 5306 5306 5306 5306 5307 5307 5308 5309 5309 5310 5310 5310 5310 5309 5307 5307 5306 5305 5304 5304 5303 5303 5301